DECAYED
Showing default

LEMUR-2-SLICERS, 46500 (Decayed)

Orbit data source: Space-Track

LEMUR-2-SLICERS, 46500 was an American payload satellite in LEO that was launched on Mon, 28 Sep 2020 UTC via a SOYUZ-2-1B launch vehicle from the Plesetsk Missile And Space Complex (PKMTR). Payloads include a variety of satellites, spacecraft, and rockets equipped with specific instruments for various scientific and technological missions. These include communications satellites like Starlink; space stations such as the ISS; scientific satellites like the Hubble; Earth observation satellites from companies like Planet Labs, Umbra, and HawkEye 360; GPS; miniature CubeSats for education and research; and military/defense satellites.

Not visible in the next 10 days
LEMUR-2-SLICERS details
Identifier
46500, 2020-068Q
Orbit
Decayed
Last TLE update3 months ago
Origin
Flag of USSPIREL/SPIRE (US)
ManufacturerSpire/Glasgow
MissionDecayed Commercial Com/MetRO
Bus & MotorCUBESAT 3U, Unknown motor
Mass4.6 kg wet, 4.6 kg dry
Launch date (UTC)
2020-09-28 (4 years ago)
Launch vehicle
SOYUZ-2-1B
Launch site
Plesetsk Missile And Space Complex (PKMTR)
Object type
Payload
Rocket body
Debris
Shape & HBRBox + 2 Pan, 0.7 m
Radar Cross Section0.124 m², Small (<0.1 m²)

Expand to show TLE details & history

TLE from 3 months ago
0 LEMUR-2-SLICERS
1 46500U 20068Q   24283.24428904  .15908144  28963-5  70936-3 0  9996
2 46500  97.7150 265.1575 0008148 219.4621 140.6086 16.42724125222907
Epoch: 2024-10-09T05:51Z
Definitive object data (Epoch: 2024-10-09T05:51:46.573Z)
Latitude-0.00003°
Longitude158.86748°
Altitude165.93 km
Speed7.804 km/s
True Right ascension17h 40m 37s
True Declination0° 00' 00"
Sunlit
Object was in daylight at TLE epoch
Visualization observer readout
Observer readout values are unavailable because the object's trajectory could not be propagated. This is usually caused when the trajectory data is faulty or the object's orbit has decayed.
Visualization observer readout
Observer readout values are unavailable because the object's trajectory could not be propagated. This is usually caused when the trajectory data is faulty or the object's orbit has decayed.
Orbital elements
Apogee altitude160.708 km
Perigee altitude150.061 km
Semi-major axis6,533.521 km
Eccentricity0.0008148
Inclination97.715°
RAAN265.1575°
Arg. of periapsis219.4621°
True anomaly140.66781°
Mean anomaly140.6086°
Eccentric anomaly140.63821°
Mean motion4.10981 °/min
BSTAR0.00070936
Orbital period87.6 mins
Loading maneuver chart data...
Loading historical data...
Loading historical data...
Loading historical data...
Loading historical data...
Loading historical data...
Loading historical data...
Loading historical data...

LEMUR-2-SLICERS Visibility forecast

Observer location: undefined°, undefined

This satellite is decayed
Span
Click to sort rows by Start time (UTC) header in descending order
Start Az.
Max El. time (UTC)
Max El. Az.
Max El.
End time (UTC)
End Az.
|